Location: Austin
(30.3000°N, 97.7500°W)
Time: 05:25:03
(UTC-06:00)

Milstar 3 Cent rocket - Pass Details

Date: 03 March 2026
Orbit: 707 x 5144 km, 28.3° (Epoch: 5 March)

Event Time Altitude Azimuth Distance (km) Brightness Sun altitude
Rises 20:48:57 0° 261° (W) 3,669 6.5 -30.4°
Reaches altitude 10° 20:50:58 10° 260° (W) 2,957 5.8 -30.8°
Maximum altitude 20:58:11 80° 174° (S) 1,702 3.5 -32.3°
Enters shadow 21:00:21 63° 105° (ESE) 2,054 3.7 -32.8°
